PROFILE

 METAR AND TAF INFORMATION
ADDS - METARS form results

(2345 UTC 09 December 2019)
http://aviationweather.gov/metar/data/
 
ENBR 092250Z 01004KT 350V060 9999 FEW015CB FEW055 01/M03 Q1010 RMK WIND 1200FT 35010KT
AMD ENBR 0921/1018 34010KT 9999 FEW015TCU SCT030 TEMPO 0921/0924 FEW015CB BECMG 0921/0923 VRB07KT BECMG 1005/1007 14010KT BECMG 1008/1011 15020G30KT BECMG 1015/1018 16030G48KT 4000 RA BR OVC012 

 AIRPORT MAP

 RUNWAY INFORMATION
Runway 17 Runway length 9810 ft Runway width 148 ft
Runway elevation 165 ft Runway displaced threshold 886 ft Runway heading 171
Runway 35 Runway length 9810 ft Runway width 148 ft
Runway elevation 146 ft Runway displaced threshold 889 ft Runway heading 351

 AIRPORT FREQUENCIES
Type APP Name RADAR Frequency 121 MHZ
Type ARR Name ARR Frequency 125 MHZ
Type ATIS Name ATIS Frequency 125.25 MHZ
Type DIR Name DIRECTOR Frequency 118.85 MHZ
Type GND Name GND Frequency 121.9 MHZ
Type TWR Name TWR Frequency 119.1 MHZ

 AIRPORT NEAR NAVIGATION AIDS
Type NDB Name Askoy Frequency 360 KHZ
Type NDB Name Bratta Frequency 336 KHZ
Type TACAN Name Flesland Frequency 114500 KHZ
Type VOR-DME Name Flesland Frequency 115550 KHZ
Type VOR-DME Name Vollo Frequency 114850 KHZ